Location: Malcolm X Square
(37.7810°N, 122.4297°W)
Time: 15:37:51
(UTC+00:00)

Daily predictions for brighter satellites

Satellite Brightness Start Highest point End
(mag) Time Altitude Azimuth Time Altitude Azimuth Time Altitude Azimuth
USA-17 4.4 12:02:41 10° NW 12:06:00 71° WSW 12:10:14 10° SSE
YAOGAN 6 2.4 12:03:34 10° N 12:06:47 55° WNW 12:07:11 50° WSW
H-2A R/B 3.4 12:02:30 10° NNE 12:07:08 37° E 12:11:50 10° SSE
Cosmos 1805 2.9 12:04:11 10° NNW 12:07:53 73° W 12:10:49 15° S
Cosmos 1151 Rocket 3.9 12:09:51 28° W 12:10:06 28° WNW 12:13:51 10° NNW
NOSS 2-2 (E) 4.3 12:09:56 10° NW 12:14:57 66° WSW 12:22:06 10° SSE
Cosmos 1553 Rocket 3.9 12:09:50 10° N 12:16:08 83° W 12:22:17 10° S
Cosmos 1867 4.1 12:12:13 10° NW 12:17:10 35° WSW 12:22:03 10° S
DMSP B5D2-2 4.0 12:13:01 10° SSE 12:18:13 83° WSW 12:23:27 10° NNW
Iridium 51 3.9 12:15:57 10° S 12:19:23 81° E 12:22:44 10° N
Cosmos 2112 Rocket 4.3 12:16:49 23° SW 12:19:53 50° WNW 12:25:05 10° N
Cosmos 1515 Rocket 4.0 12:17:06 10° S 12:21:29 64° E 12:25:54 10° NNE
Cosmos 921 Rocket 3.0 12:19:17 22° SSW 12:21:50 61° WNW 12:26:05 10° N
Cosmos 1461 2.7 12:18:44 10° NW 12:22:27 51° WSW 12:26:08 10° SSE
NOSS 2-2 (D) 4.2 12:23:53 10° NW 12:28:49 69° WSW 12:35:53 10° SSE
Cosmos 1470 Rocket 3.7 12:25:15 10° N 12:29:39 78° E 12:34:04 10° S
Cosmos 2278 Rocket 2.8 12:27:12 10° NW 12:32:13 33° WSW 12:37:11 10° SSW
USA 308 2.7 12:32:13 18° SW 12:34:54 72° SE 12:38:49 10° NE
SL-16 R/B 4.1 12:36:05 13° W 12:36:05 13° W 12:38:25 10° WNW
Cosmos 1939 Rocket 3.8 12:32:13 10° NNE 12:35:52 46° E 12:39:30 10° S
Chandra Rocket (1) 3.5 12:33:50 14° SSW 12:36:06 26° SSE 12:42:11 10° ESE
IRS-1D 4.1 12:31:36 10° N 12:36:16 37° WNW 12:40:23 13° SW
CRYOSAT 2 4.4 12:38:10 10° N 12:43:00 64° W 12:47:47 10° SSW
Cosmos 1666 Rocket 4.2 12:39:07 10° NNW 12:43:08 34° W 12:47:07 10° SSW
Cosmos 1048 Rocket 4.1 12:39:16 10° SSW 12:44:35 82° ESE 12:49:54 10° NNE
ATLAS 2AS CENTAUR R/B 3.0 12:37:48 12° SW 12:44:44 62° NW 12:51:54 10° NNE
Cosmos 1975 3.6 12:42:23 10° NNW 12:45:41 28° W 12:49:00 10° SSW
SL-16 R/B 2.3 12:40:47 10° SSW 12:46:22 62° WNW 12:51:59 10° NNE
Cosmos 1766 3.0 12:43:02 10° N 12:46:44 81° W 12:50:24 10° S
ARGOS 4.4 12:46:47 10° NNE 12:51:54 44° E 12:56:58 10° S
Cosmos 1674 2.3 12:48:56 10° S 12:52:21 84° W 12:55:48 10° N
KORONAS-FOTON 3.8 12:50:07 10° S 12:53:46 81° E 12:57:26 10° N
Cosmos 1933 Rocket 3.7 12:52:39 10° N 12:57:02 79° E 13:01:21 10° S
ARIANE 5 R/B 3.5 12:52:29 10° NNE 12:57:36 53° E 13:02:40 10° S
Cosmos 1484 Rocket 3.0 12:56:59 10° N 13:00:24 43° WNW 13:03:48 10° SW
Cosmos 1656 Rocket 4.3 12:57:14 10° NNW 13:02:35 59° ENE 13:07:54 10° SE
Cosmos 2056 Rocket 4.0 12:57:56 10° NNW 13:02:59 42° WSW 13:08:02 10° S
Cosmos 1340 3.9 13:02:09 10° NW 13:04:33 18° W 13:06:57 10° SW
Cosmos 494 Rocket 4.4 13:03:52 10° SW 13:08:46 43° WNW 13:13:40 10° N
Cosmos 1452 Rocket 4.2 13:05:02 10° NNW 13:10:15 62° ENE 13:15:25 10° SSE
